| time (UTC) | temp F | wind direction | speed MPH | gust MPH | rain 1hr in | rain 24hr in | rain mn in | humidity % | barometer mb |
| 20260506030030 | 30 | 329 | 0.0 | 0.0 | 0.00 | 0.00 | 0.00 | 89 | 1013.0 |
| 20260506024538 | 30 | 329 | 0.0 | 0.0 | 0.00 | 0.00 | 0.00 | 88 | 1012.9 |
| 20260506023029 | 30 | 329 | 0.0 | 0.0 | 0.00 | 0.00 | 0.00 | 87 | 1012.9 |
| 20260506021527 | 30 | 329 | 0.0 | 0.0 | 0.00 | 0.00 | 0.00 | 88 | 1012.9 |
| 20260506020024 | 30 | 329 | 0.0 | 0.0 | 0.00 | 0.00 | 0.00 | 89 | 1012.7 |
| 20260506014523 | 31 | 329 | 0.0 | 0.0 | 0.00 | 0.00 | 0.00 | 88 | 1012.7 |
| 20260506013022 | 31 | 328 | 0.0 | 0.0 | 0.00 | 0.00 | 0.00 | 87 | 1012.6 |
| 20260506011546 | 32 | 328 | 0.0 | 0.0 | 0.00 | 0.00 | 0.00 | 86 | 1012.5 |
| 20260506010018 | 32 | 329 | 0.0 | 0.0 | 0.00 | 0.00 | 0.00 | 88 | 1012.3 |
| 20260506004518 | 31 | 328 | 0.0 | 0.0 | 0.00 | 0.00 | 0.00 | 87 | 1012.2 |
| 20260506003017 | 31 | 329 | 0.0 | 0.0 | 0.00 | 0.00 | 0.00 | 87 | 1012.1 |
| 20260506001513 | 32 | 328 | 0.0 | 0.0 | 0.00 | 0.00 | 0.00 | 87 | 1012.1 |
| 20260506000010 | 32 | 328 | 0.0 | 0.0 | 0.00 | 0.00 | 0.00 | 85 | 1011.9 |
| 20260505234522 | 33 | 329 | 0.0 | 0.0 | 0.00 | 0.00 | 0.00 | 84 | 1011.9 |
| 20260505233008 | 32 | 328 | 0.0 | 0.0 | 0.00 | 0.00 | 0.00 | 83 | 1011.9 |
| 20260505231508 | 33 | 329 | 0.0 | 0.0 | 0.00 | 0.00 | 0.00 | 83 | 1011.8 |
| 20260505230009 | 33 | 329 | 0.0 | 0.0 | 0.00 | 0.00 | 0.00 | 81 | 1011.7 |
| 20260505224503 | 34 | 329 | 0.0 | 0.0 | 0.00 | 0.00 | 0.00 | 81 | 1011.7 |
| 20260505223001 | 34 | 329 | 0.0 | 0.0 | 0.00 | 0.00 | 0.00 | 78 | 1011.8 |
| 20260505221602 | 35 | 329 | 0.0 | 0.0 | 0.00 | 0.00 | 0.00 | 77 | 1011.5 |
| 20260505220053 | 36 | 329 | 0.0 | 0.0 | 0.00 | 0.00 | 0.00 | 78 | 1011.4 |
| 20260505214551 | 37 | 329 | 0.0 | 0.0 | 0.00 | 0.00 | 0.00 | 74 | 1011.4 |
| 20260505213046 | 38 | 328 | 0.0 | 0.0 | 0.00 | 0.00 | 0.00 | 71 | 1011.2 |
| 20260505211543 | 40 | 329 | 0.0 | 0.0 | 0.00 | 0.00 | 0.00 | 66 | 1011.2 |
| 20260505210038 | 42 | 328 | 0.0 | 0.0 | 0.00 | 0.00 | 0.00 | 61 | 1011.0 |
| 20260505204545 | 43 | 327 | 0.0 | 0.0 | 0.00 | 0.00 | 0.00 | 60 | 1011.0 |
| 20260505203034 | 44 | 339 | 0.0 | 2.0 | 0.00 | 0.00 | 0.00 | 59 | 1010.8 |
| 20260505201531 | 45 | 332 | 0.0 | 0.0 | 0.00 | 0.00 | 0.00 | 56 | 1010.8 |
| 20260505200025 | 46 | 348 | 1.0 | 5.0 | 0.00 | 0.00 | 0.00 | 54 | 1010.5 |
| 20260505194533 | 46 | 304 | 0.0 | 1.0 | 0.00 | 0.00 | 0.00 | 50 | 1010.4 |
| 20260505193025 | 47 | 277 | 0.0 | 2.0 | 0.00 | 0.00 | 0.00 | 49 | 1010.1 |
| 20260505191521 | 47 | 266 | 1.0 | 5.0 | 0.00 | 0.00 | 0.00 | 49 | 1010.0 |
| 20260505190019 | 47 | 281 | 0.0 | 4.0 | 0.00 | 0.00 | 0.00 | 49 | 1009.9 |
| 20260505184521 | 48 | 297 | 0.0 | 4.0 | 0.00 | 0.00 | 0.00 | 48 | 1009.7 |
| 20260505183017 | 49 | 294 | 1.0 | 7.0 | 0.00 | 0.00 | 0.00 | 45 | 1009.5 |
| 20260505181510 | 49 | 301 | 2.0 | 9.0 | 0.00 | 0.00 | 0.00 | 46 | 1009.4 |
| 20260505180011 | 50 | 283 | 5.0 | 9.0 | 0.00 | 0.00 | 0.00 | 43 | 1009.2 |
| 20260505174543 | 51 | 312 | 0.0 | 7.0 | 0.00 | 0.00 | 0.00 | 40 | 1009.0 |
| 20260505173041 | 50 | 49 | 0.0 | 6.0 | 0.00 | 0.00 | 0.00 | 40 | 1008.9 |
| 20260505171507 | 49 | 316 | 0.0 | 1.0 | 0.00 | 0.00 | 0.00 | 45 | 1008.8 |
| 20260505170008 | 49 | 327 | 0.0 | 2.0 | 0.00 | 0.00 | 0.00 | 44 | 1008.7 |
| 20260505164506 | 49 | 326 | 0.0 | 0.0 | 0.00 | 0.00 | 0.00 | 43 | 1008.6 |
| 20260505163004 | 49 | 317 | 0.0 | 1.0 | 0.00 | 0.00 | 0.00 | 45 | 1008.6 |
| 20260505161506 | 49 | 314 | 0.0 | 4.0 | 0.00 | 0.00 | 0.00 | 45 | 1008.6 |
| 20260505153108 | 51 | 263 | 4.0 | 10.0 | 0.00 | 0.00 | 0.00 | 36 | 1008.4 |
| 20260505151600 | 51 | 262 | 3.0 | 9.0 | 0.00 | 0.00 | 0.00 | 42 | 1008.4 |
| 20260505150120 | 52 | 320 | 1.0 | 6.0 | 0.00 | 0.00 | 0.00 | 41 | 1008.3 |
| 20260505124552 | 50 | 288 | 1.0 | 7.0 | 0.00 | 0.00 | 0.00 | 41 | 1008.0 |
| 20260505123053 | 50 | 276 | 3.0 | 10.0 | 0.00 | 0.00 | 0.00 | 41 | 1008.0 |
| 20260505121611 | 51 | 281 | 2.0 | 9.0 | 0.00 | 0.00 | 0.00 | 40 | 1007.9 |
| 20260505120040 | 50 | 262 | 3.0 | 8.0 | 0.00 | 0.00 | 0.00 | 42 | 1007.8 |
| 20260505114541 | 49 | 301 | 5.0 | 11.0 | 0.00 | 0.00 | 0.00 | 44 | 1007.8 |
| 20260505113046 | 49 | 264 | 4.0 | 9.0 | 0.00 | 0.00 | 0.00 | 44 | 1007.8 |
| 20260505111540 | 50 | 294 | 1.0 | 7.0 | 0.00 | 0.00 | 0.00 | 43 | 1007.8 |
| 20260505101540 | 49 | 270 | 4.0 | 9.0 | 0.00 | 0.00 | 0.00 | 49 | 1007.6 |
| 20260505100042 | 49 | 325 | 3.0 | 10.0 | 0.00 | 0.00 | 0.00 | 47 | 1007.5 |
| 20260505094533 | 48 | 273 | 2.0 | 9.0 | 0.00 | 0.00 | 0.00 | 50 | 1007.4 |
| 20260505093033 | 48 | 280 | 5.0 | 10.0 | 0.00 | 0.00 | 0.00 | 45 | 1007.4 |
| 20260505091536 | 48 | 270 | 1.0 | 9.0 | 0.00 | 0.00 | 0.00 | 48 | 1007.3 |
| 20260505090029 | 47 | 308 | 0.0 | 9.0 | 0.00 | 0.00 | 0.00 | 55 | 1007.3 |
| 20260505084528 | 47 | 271 | 2.0 | 7.0 | 0.00 | 0.00 | 0.00 | 58 | 1007.2 |
| 20260505083034 | 46 | 288 | 2.0 | 10.0 | 0.00 | 0.00 | 0.00 | 55 | 1007.1 |
| 20260505081529 | 46 | 278 | 0.0 | 7.0 | 0.00 | 0.00 | 0.00 | 57 | 1007.0 |
| 20260505080036 | 46 | 313 | 1.0 | 6.0 | 0.00 | 0.00 | 0.00 | 58 | 1006.9 |
| 20260505074523 | 45 | 289 | 1.0 | 5.0 | 0.00 | 0.00 | 0.00 | 60 | 1006.9 |
| 20260505073025 | 45 | 240 | 0.0 | 4.0 | 0.00 | 0.00 | 0.00 | 60 | 1006.8 |
| 20260505071532 | 45 | 293 | 0.0 | 4.0 | 0.00 | 0.00 | 0.00 | 64 | 1006.8 |
| 20260505070019 | 44 | 288 | 0.0 | 2.0 | 0.00 | 0.00 | 0.00 | 66 | 1006.6 |
| 20260505064517 | 44 | 319 | 0.0 | 2.0 | 0.00 | 0.00 | 0.00 | 65 | 1006.4 |
| 20260505063028 | 43 | 319 | 0.0 | 5.0 | 0.00 | 0.00 | 0.00 | 69 | 1006.4 |
| 20260505061517 | 43 | 321 | 0.0 | 4.0 | 0.00 | 0.02 | 0.00 | 74 | 1006.3 |
| 20260505060012 | 43 | 319 | 0.0 | 2.0 | 0.00 | 0.02 | 0.00 | 76 | 1006.2 |
| 20260505054511 | 43 | 294 | 0.0 | 6.0 | 0.00 | 0.02 | 0.00 | 78 | 1006.0 |
| 20260505053008 | 42 | 315 | 0.0 | 3.0 | 0.00 | 0.02 | 0.00 | 80 | 1006.0 |
| 20260505051507 | 42 | 326 | 0.0 | 9.0 | 0.00 | 0.02 | 0.00 | 80 | 1005.9 |
| 20260505041611 | 42 | 308 | 0.0 | 4.0 | 0.00 | 0.02 | 0.00 | 79 | 1005.4 |
| 20260505040104 | 43 | 308 | 0.0 | 1.0 | 0.00 | 0.02 | 0.00 | 80 | 1005.3 |
| 20260505034555 | 42 | 326 | 0.0 | 2.0 | 0.00 | 0.02 | 0.00 | 79 | 1005.0 |
| 20260505033054 | 43 | 315 | 0.0 | 1.0 | 0.00 | 0.02 | 0.00 | 81 | 1004.9 |
| 20260505031555 | 43 | 317 | 0.0 | 3.0 | 0.00 | 0.02 | 0.00 | 80 | 1004.6 |